Regional Weather Roundup
Issued by NWS

Home | Current Version | Previous Version | Text Only | Print | Product List | Glossary Off
Versions: 1 2 3 4 5 6 7 8 9 10 11 12 13 14 15 16 17 18 19 20 21 22 23 24 25 26 27 28 29 30 31 32 33 34 35 36 37 38 39 40 41 42 43 44 45 46 47 48 49 50

000
ASUS45 KABQ 172301
RWRNM
NEW MEXICO REGIONAL WEATHER ROUNDUP
NATIONAL WEATHER SERVICE ALBUQUERQUE NM
400 PM MST SUN DEC 17 2017

NOTE: "FAIR" MEANS FEW OR NO CLOUDS BELOW 12,000 FEET AGL WITH NO
       SIGNIFICANT WEATHER OR OBSTRUCTIONS TO VISION.

      THIS PRODUCT IS RELEASED AS TWO VERSIONS.  ONE VERSION NEAR
      THE TOP OF THE HOUR CONTAINING PRELIMINARY DATA FROM ALBUQUERQUE
      AND OTHER STATIONS.  A FINAL VERSION WITH ADDITIONAL DATA IS
      ISSUED ABOUT 10 MINUTES AFTER THE HOUR.

NMZ501-503-504-510>518-180000-
NORTHWEST PLATEAU/NORTHCENTRAL MOUNTAINS

CITY           SKY/WX    TMP DP  RH WIND       PRES   REMARKS
FARMINGTON     FAIR      47   9  21 W12       29.98R
LOS ALAMOS     FAIR      45  11  25 S9G17     30.00R
SANTA FE       FAIR      47  13  25 SW9       29.98R
TAOS           FAIR      47   3  16 SW12      29.99R
ANGEL FIRE     FAIR      40   7  25 W10       29.99S WCI  34

$$
NMZ402-403-502-505>509-180000-
WESTCENTRAL MOUNTAINS/SOUTHWEST MOUNTAINS

CITY           SKY/WX    TMP DP  RH WIND       PRES   REMARKS
GALLUP         FAIR      49   9  19 NE13      29.97R
GRANTS         FAIR      49  13  23 SE13      29.99R
SILVER CITY    CLOUDY    40  37  89 E3        30.03R

$$
NMZ407-409-411-412-180000-
SOUTHERN DESERTS

CITY           SKY/WX    TMP DP  RH WIND       PRES   REMARKS
DEMING         CLOUDY    47  41  80 NE5       30.01F
LAS CRUCES     CLOUDY    47  42  84 NE6       30.04R
HOLLOMAN AFB   FAIR      51  33  50 N3        30.05S
ALAMOGORDO     FAIR      50  32  50 NW5       30.04R
T OR C         CLOUDY    44  39  82 SW3       30.04R

$$
NMZ519>523-180000-
CENTRAL VALLEYS/CENTRAL HIGHLANDS

CITY           SKY/WX    TMP DP  RH WIND       PRES   REMARKS
ALBUQUERQUE    FAIR      51  11  20 SW5       29.99R
DOUBLE EAGLE   PTCLDY    52  12  20 SE8       29.99R
MORIARTY ARPT  FAIR      53   6  15 S14       30.00R
CLINES CORNERS FAIR      47   8  20 SW12      30.01R
BELEN          FAIR      52  14  22 S15       30.00R
SOCORRO        MOCLDY    50  32  50 S14       30.01R

$$
NMZ524>526-539-540-180000-
SOUTHCENTRAL MOUNTAINS

CITY           SKY/WX    TMP DP  RH WIND       PRES   REMARKS
RUIDOSO        CLOUDY    45  25  45 SW6       30.05S

$$
NMZ527>531-180000-
NORTHEAST HIGHLANDS/NORTHEAST PLAINS

CITY           SKY/WX    TMP DP  RH WIND       PRES   REMARKS
LAS VEGAS      FAIR      47   8  20 S16       29.96R
RATON          FAIR      47  11  23 S9        29.93R
CLAYTON        FAIR      42  25  50 SE8       29.97R

$$
NMZ532>537-180000-
EASTCENTRAL PLAINS

CITY           SKY/WX    TMP DP  RH WIND       PRES   REMARKS
SANTA ROSA     FAIR      58  10  15 SW9       29.94R
TUCUMCARI      FAIR      50  23  34 E8        29.95R
CANNON AFB     FAIR      52  21  30 E8        29.99R
CLOVIS AIRPORT FAIR      50  22  33 SE8       30.00R

$$
NMZ028-029-538-180000-
SOUTHEAST PLAINS

CITY           SKY/WX    TMP DP  RH WIND       PRES   REMARKS
ROSWELL        FAIR      63  28  26 S14       29.95R
ARTESIA        FAIR      63  30  29 S12       29.95S
CARLSBAD       FAIR      64  33  31 S7        29.94R
HOBBS          CLEAR     63  30  29 S14       29.97R


$$




USA.gov is the U.S. government's official web portal to all federal, state and local government web resources and services.